Location: Augsburg
(48.3836°N, 10.8929°E)
Time: 06:02:52
(UTC+01:00)

ISS - Pass Details

Date: 07 December 2021
Orbit: 413 x 423 km, 51.6° (Epoch: 20 January)

Event Time Altitude Azimuth Distance (km) Brightness Sun altitude
Rises 17:07:57 0° 291° (WNW) 2,384 0.8 -7.4°
Reaches altitude 10° 17:10:04 10° 288° (WNW) 1,515 -0.2 -7.8°
Maximum altitude 17:13:25 57° 209° (SSW) 502 -3.1 -8.3°
Drops below altitude 10° 17:16:44 10° 130° (SE) 1,503 -1.2 -8.8°
Sets 17:18:46 0° 126° (SE) 2,328 -0.3 -9.1°
